Change the Weather History Date:

Friday, January 4, 2013

  Actual Average Record
Temperature  
Mean Temperature 71 °F -  
Max Temperature 73 °F 78 °F 85 °F (1973)
Min Temperature 69 °F 64 °F 55 °F (2002)
Cooling Degree Days 6    
Growing Degree Days 21 (Base 50)    
Moisture  
Dew Point 64 °F    
Average Humidity 79    
Maximum Humidity 87    
Minimum Humidity 69    
Precipitation  
Precipitation 0.34 in - - ()
Sea Level Pressure  
Sea Level Pressure 30.09 in    
Wind  
Wind Speed 19 mph (NE)    
Max Wind Speed 25 mph    
Max Gust Speed 43 mph    
Visibility 8 miles    
Events Rain    
Averages and records for this station are not official NWS values.
T = Trace of Precipitation, MM = Missing Value Source: NWS Daily Summary

Daily Weather History Graph

Daily Weather History Graph

Search for Another Location

Airport or City:

Trip Planner

Search our weather history database for the weather conditions in past years. The results will help you decide how hot, cold, wet, or windy it might be!

Date:

Astronomy

Jan. 04, 2013 Rise Set
Actual Time 7:06 AM HST 6:00 PM HST
Civil Twilight 6:42 AM HST 6:24 PM HST
Nautical Twilight 6:15 AM HST 6:52 PM HST
Astronomical Twilight 5:47 AM HST 7:19 PM HST
Moon No Moon Rise 11:54 AM HST (1/4)
Length of Visible Light 11h 41m
Length of Day
10h 53m
Waning Gibbous, 53% of the Moon is Illuminated
Jan 4
Waning Gibbous
Jan 4
Last Quarter
Jan 11
New
Jan 18
First Quarter
Jan 26
Full

Hourly Weather History & Observations

Time (HST) Temp. Dew Point Humidity Pressure Visibility Wind Dir Wind Speed Gust Speed Precip Events Conditions
12:20 AM 71.6 °F 62.6 °F 73% 30.07 in 10.0 mi NE 17.3 mph 32.2 mph N/A   Mostly Cloudy
12:54 AM 70.0 °F 63.0 °F 78% 30.07 in 10.0 mi NNE 15.0 mph 31.1 mph 0.00 in   Mostly Cloudy
1:25 AM 71.6 °F 62.6 °F 73% 30.05 in 10.0 mi NE 11.5 mph 31.1 mph N/A   Scattered Clouds
1:54 AM 71.1 °F 62.1 °F 73% 30.07 in 10.0 mi NE 13.8 mph 31.1 mph N/A   Scattered Clouds
2:05 AM 71.6 °F 62.6 °F 73% 30.05 in 10.0 mi NE 16.1 mph 36.8 mph N/A   Mostly Cloudy
2:54 AM 71.1 °F 63.0 °F 75% 30.05 in 10.0 mi NE 19.6 mph 34.5 mph 0.00 in   Mostly Cloudy
3:14 AM 71.6 °F 62.6 °F 73% 30.04 in 10.0 mi NE 13.8 mph 28.8 mph 0.00 in   Scattered Clouds
3:50 AM 71.6 °F 62.6 °F 73% 30.03 in 10.0 mi NNE 20.7 mph 34.5 mph 0.00 in Rain Light Rain
3:54 AM 70.0 °F 62.1 °F 76% 30.05 in 9.0 mi NE 20.7 mph 34.5 mph 0.00 in Rain Light Rain
4:50 AM 71.6 °F 60.8 °F 69% 30.04 in 10.0 mi NNE 21.9 mph 34.5 mph 0.00 in   Scattered Clouds
4:54 AM 71.1 °F 61.0 °F 70% 30.06 in 10.0 mi NNE 23.0 mph 34.5 mph 0.00 in   Scattered Clouds
5:52 AM 69.8 °F 62.6 °F 78% 30.06 in 9.0 mi NE 18.4 mph 33.4 mph 0.00 in Rain Light Rain
5:54 AM 70.0 °F 63.0 °F 78% 30.07 in 8.0 mi NE 21.9 mph 35.7 mph 0.00 in Rain Light Rain
6:38 AM 69.8 °F 64.4 °F 83% 30.08 in 10.0 mi NE 17.3 mph 29.9 mph 0.01 in   Mostly Cloudy
6:45 AM 69.8 °F 64.4 °F 83% 30.09 in 10.0 mi NE 15.0 mph 26.5 mph 0.01 in   Mostly Cloudy
6:54 AM 70.0 °F 64.0 °F 81% 30.09 in 10.0 mi NE 19.6 mph 29.9 mph 0.01 in Rain Light Rain
7:54 AM 70.0 °F 64.0 °F 81% 30.12 in 5.0 mi NE 19.6 mph 38.0 mph 0.04 in Rain Light Rain
8:08 AM 69.8 °F 64.4 °F 83% 30.11 in 7.0 mi NE 20.7 mph 31.1 mph 0.00 in Rain Light Rain
8:15 AM 71.6 °F 64.4 °F 78% 30.11 in 5.0 mi NE 24.2 mph 33.4 mph 0.01 in Rain Light Rain
8:26 AM 71.6 °F 64.4 °F 78% 30.12 in 10.0 mi NE 19.6 mph 31.1 mph 0.01 in   Partly Cloudy
8:52 AM 71.6 °F 64.4 °F 78% 30.14 in 6.0 mi NE 18.4 mph 29.9 mph 0.03 in Rain Light Rain
8:54 AM 71.1 °F 64.0 °F 78% 30.16 in 7.0 mi NE 12.7 mph 29.9 mph 0.03 in Rain Light Rain
9:04 AM 71.6 °F 64.4 °F 78% 30.14 in 10.0 mi NE 21.9 mph 29.9 mph 0.01 in   Scattered Clouds
9:54 AM 72.0 °F 63.0 °F 73% 30.17 in 7.0 mi NE 21.9 mph 31.1 mph 0.01 in Rain Light Rain
10:54 AM 73.0 °F 63.0 °F 71% 30.15 in 10.0 mi NE 18.4 mph 27.6 mph 0.00 in Rain Light Rain
11:12 AM 71.6 °F 64.4 °F 78% 30.13 in 2.5 mi NNE 15.0 mph 28.8 mph 0.01 in Rain Rain
11:18 AM 71.6 °F 64.4 °F 78% 30.12 in 3.0 mi NE 16.1 mph 28.8 mph 0.01 in Rain Light Rain
11:25 AM 71.6 °F 64.4 °F 78% 30.13 in 4.0 mi NE 16.1 mph 35.7 mph 0.01 in Rain Light Rain
11:54 AM 72.0 °F 66.0 °F 81% 30.11 in 10.0 mi NE 23.0 mph 34.5 mph 0.04 in Rain Light Rain
12:54 PM 73.0 °F 66.0 °F 79% 30.09 in 10.0 mi NE 17.3 mph 27.6 mph 0.01 in Rain Light Rain
1:54 PM 72.0 °F 64.9 °F 78% 30.06 in 5.0 mi NE 19.6 mph 38.0 mph 0.05 in Rain Light Rain
2:06 PM 71.6 °F 64.4 °F 78% 30.04 in 3.0 mi NE 25.3 mph 38.0 mph 0.01 in Rain Light Rain
2:24 PM 71.6 °F 66.2 °F 83% 30.04 in 4.0 mi NE 18.4 mph 32.2 mph 0.01 in Rain Light Rain
2:54 PM 73.0 °F 66.0 °F 79% 30.05 in 7.0 mi NE 17.3 mph 36.8 mph 0.01 in Rain Light Rain
3:02 PM 71.6 °F 62.6 °F 73% 30.04 in 7.0 mi NE 20.7 mph 39.1 mph 0.00 in Rain Light Rain
3:54 PM 73.0 °F 64.9 °F 76% 30.05 in 9.0 mi NE 20.7 mph 36.8 mph 0.00 in Rain Light Rain
4:54 PM 70.0 °F 64.9 °F 84% 30.07 in 7.0 mi NE 21.9 mph 38.0 mph 0.00 in Rain Light Rain
5:01 PM 69.8 °F 64.4 °F 83% 30.05 in 7.0 mi NE 23.0 mph 38.0 mph 0.00 in Rain Light Rain
5:54 PM 70.0 °F 64.9 °F 84% 30.08 in 7.0 mi NE 19.6 mph 36.8 mph 0.00 in Rain Light Rain
6:54 PM 70.0 °F 64.0 °F 81% 30.09 in 6.0 mi NE 24.2 mph 35.7 mph 0.03 in Rain Light Rain
7:02 PM 69.8 °F 64.4 °F 83% 30.09 in 4.0 mi NE 21.9 mph 36.8 mph 0.00 in Rain Light Rain
7:45 PM 69.8 °F 64.4 °F 83% 30.10 in 7.0 mi NE 20.7 mph 38.0 mph 0.03 in Rain Light Rain
7:54 PM 70.0 °F 64.9 °F 84% 30.12 in 9.0 mi NE 20.7 mph 36.8 mph 0.03 in Rain Light Rain
8:54 PM 69.1 °F 64.9 °F 87% 30.13 in 6.0 mi NE 19.6 mph 38.0 mph 0.03 in Rain Light Rain
9:48 PM 69.8 °F 64.4 °F 83% 30.11 in 10.0 mi NE 25.3 mph 39.1 mph 0.01 in Rain Light Rain
9:54 PM 70.0 °F 64.0 °F 81% 30.13 in 10.0 mi NE 23.0 mph 39.1 mph 0.01 in Rain Light Rain
10:03 PM 69.8 °F 64.4 °F 83% 30.12 in 6.0 mi NE 25.3 mph 38.0 mph 0.00 in Rain Light Rain
10:18 PM 69.8 °F 64.4 °F 83% 30.12 in 10.0 mi NE 20.7 mph 42.6 mph 0.00 in   Scattered Clouds
10:29 PM 69.8 °F 64.4 °F 83% 30.12 in 8.0 mi NE 23.0 mph 34.5 mph 0.00 in Rain Light Rain
10:54 PM 70.0 °F 64.9 °F 84% 30.12 in 6.0 mi NE 18.4 mph 35.7 mph 0.02 in Rain Light Rain
11:54 PM 70.0 °F 64.0 °F 81% 30.14 in 6.0 mi NE 21.9 mph 36.8 mph 0.02 in Rain Light Rain